[[{"header":{"parameterUnit":"m.s-1","parameterCategory":1,"la1":30.2991,"la2":30.254,"lo1":-89.0895,"lo2":-89.0444,"dy":0.0017,"dx":0.0017,"nx":28,"ny":28,"refTime":"2025-07-22T21:00:00:Z","depth":0,"parameterNumber":2,"parameterNumberName":"U-component_of_WINDS"},"data":[0,0,0,0,0,0,0,0,0,0,0,0,0,0,0,0,0,0,0,0,0,0,0,0,0,0,0,0,0,0,0,0,0,0,0,0,0,0,0,0,0,0,0,0,0,0,0,0,0,0,0,0,0,0,0,0,0,0,-4.4089,-4.409,0,-4.4257,-4.4259,-4.4261,-4.4297,-4.4296,-4.4295,-4.4293,-4.4466,-4.4472,-4.4478,0,0,0,0,0,0,0,0,0,0,0,0,0,-4.3799,-4.3804,-4.4088,-4.4091,-4.4093,-4.4257,-4.4259,-4.4262,-4.4297,-4.4296,-4.4294,-4.4293,-4.4464,-4.4471,-4.4478,0,0,0,0,0,0,0,0,0,0,0,0,0,-4.3942,-4.3806,-4.4088,-4.413,-4.4136,-4.4256,-4.4259,-4.4262,-4.4298,-4.4296,-4.4294,-4.4292,-4.4462,-4.4471,-4.4479,-4.457,0,0,-4.4505,-4.4509,0,0,0,0,0,0,0,0,-4.3934,-4.3953,-4.4122,-4.4128,-4.4134,-4.4254,-4.4221,-4.4365,-4.4298,-4.4236,-4.4293,-4.4291,-4.4397,-4.4411,-4.4447,-4.4578,-4.4585,-4.4506,-4.4511,-4.4515,-4.4518,0,0,0,0,0,0,0,-4.3924,-4.3946,-4.4155,-4.4125,-4.4132,-4.4142,-4.416,-4.4248,-4.4325,-4.4241,-4.4245,-4.4264,-4.44,-4.4438,-4.4451,-4.4588,-4.4506,-4.4514,-4.4519,-4.4522,-4.4803,-4.4805,0,0,0,0,0,0,-4.3907,-4.3937,-4.415,-4.416,-4.4027,-4.4148,-4.4169,-4.4218,-4.4324,-4.4339,-4.4265,-4.4265,-4.4425,-4.4441,-4.4457,-4.4571,-4.4515,-4.4523,-4.4528,-4.4801,-4.4804,-4.4806,0,0,0,0,0,0,-4.39,-4.3925,-4.4143,-4.405,-4.4078,-4.4155,-4.421,-4.4222,-4.426,-4.4342,-4.4356,-4.429,-4.4424,-4.4445,-4.4542,-4.4577,-4.4527,-4.4535,-4.4798,-4.4802,-4.4805,-4.4798,0,0,0,0,0,0,-4.3892,-4.3923,-4.3957,-4.405,-4.4083,-4.4224,-4.4212,-4.4226,-4.4275,-4.4276,-4.4369,-4.4383,-4.4424,-4.4529,-4.455,-4.4588,-4.4542,-4.4795,-4.48,-4.4804,-4.4795,-4.4801,-4.4805,0,0,0,0,0,-4.3881,-4.3948,-4.3959,-4.3984,-4.4128,-4.4226,-4.4245,-4.429,-4.4277,-4.4313,-4.4367,-4.438,-4.457,-4.4538,-4.4563,-4.4604,-4.4793,-4.4799,-4.4804,-4.4793,-4.48,-4.4805,0,0,0,0,0,0,-4.3856,-4.3961,-4.3974,-4.4072,-4.414,-4.4232,-4.4278,-4.4296,-4.4368,-4.4366,-4.442,-4.4441,-4.4534,-4.4579,-4.4542,-4.4698,-4.4681,-4.4692,-4.4665,-4.4672,-4.4677,-4.4663,-4.4549,0,0,0,0,0,-4.3862,-4.3933,-4.4021,-4.41,-4.4133,-4.42,-4.4244,-4.4274,-4.4346,-4.4375,-4.4435,-4.4505,-4.4581,-4.4629,-4.4703,-4.4803,-4.4824,-4.4844,-4.4849,-4.4852,-4.486,-4.4917,-4.4927,-4.4823,-4.4823,-4.4823,0,0,-4.3875,-4.3941,-4.3982,-4.4096,-4.4152,-4.4225,-4.4223,-4.43,-4.4354,-4.4386,-4.4481,-4.4528,-4.461,-4.4708,-4.4755,-4.4749,-4.4894,-4.4859,-4.4861,-4.4867,-4.4924,-4.4933,-4.4942,-4.4827,-4.4826,-4.4825,0,0,-4.3935,-4.3993,-4.4065,-4.4121,-4.4206,-4.4251,-4.4268,-4.4358,-4.4391,-4.4487,-4.4513,-4.458,-4.4709,-4.4766,-4.4812,-4.4898,-4.4913,-4.4921,-4.4946,-4.5001,-4.5009,-4.5017,-4.5047,-4.5058,-4.4929,-4.4929,-4.4929,0,-4.394,-4.405,-4.4099,-4.4175,-4.4225,-4.4259,-4.4333,-4.4386,-4.449,-4.4524,-4.4516,-4.468,-4.4738,-4.4851,-4.4872,-4.4908,-4.4931,-4.4909,-4.5004,-4.5012,-4.502,-4.505,-4.5061,-4.4929,-4.4929,-4.4929,-4.4929,0,-4.4052,-4.4129,-4.4177,-4.4278,-4.4333,-4.4408,-4.4469,-4.452,-4.4546,-4.4592,-4.469,-4.4761,-4.485,-4.488,-4.4906,-4.4998,-4.4991,-4.4993,-4.4977,-4.5029,-4.5058,-4.507,-4.4929,-4.4929,-4.4929,-4.4929,0,0,-4.4098,-4.4228,-4.4244,-4.4291,-4.4389,-4.4449,-4.4527,-4.4615,-4.4657,-4.4729,-4.4795,-4.4906,-4.4909,-4.4961,-4.4994,-4.5043,-4.5107,-4.504,-4.5042,-4.5049,-4.5213,-4.521,-4.5222,-4.5119,-4.5121,-4.5123,-4.5206,0,-4.4169,-4.4307,-4.4355,-4.4469,-4.4541,-4.4576,-4.4644,-4.4711,-4.4757,-4.4825,-4.4876,-4.4953,-4.4951,-4.4983,-4.5033,-4.5088,-4.514,-4.5083,-4.5181,-4.5184,-4.5157,-4.5237,-4.5233,-4.5308,-4.5218,-4.522,-4.5221,0,-4.427,-4.4344,-4.4465,-4.4556,-4.4588,-4.4648,-4.4733,-4.4798,-4.4877,-4.4907,-4.4967,-4.4997,-4.508,-4.5061,-4.5177,-4.5137,-4.5181,-4.5214,-4.5219,-4.5228,-4.5204,-4.5247,-4.5333,-4.5343,-4.5239,-4.5238,-4.5236,0,-4.429,-4.4421,-4.4511,-4.455,-4.4658,-4.4699,-4.4747,-4.4824,-4.4874,-4.495,-4.4983,-4.5068,-4.5113,-4.5179,-4.5232,-4.5213,-4.5343,-4.5328,-4.537,-4.5369,-4.5394,-4.5391,-4.5486,-4.5425,-4.5425,-4.5424,-4.5424,0,-4.4364,-4.4436,-4.4521,-4.4576,-4.4659,-4.4715,-4.4796,-4.4846,-4.4915,-4.498,-4.5017,-4.5078,-4.5145,-4.5216,-4.5258,-4.5348,-4.5369,-4.5396,-4.5406,-4.5391,-4.5388,-4.5419,-4.5414,-4.5427,-4.5427,-4.5426,-4.5426,0,-4.4399,-4.4459,-4.4559,-4.4654,-4.468,-4.4737,-4.4819,-4.4875,-4.4923,-4.5006,-4.5029,-4.5105,-4.519,-4.5251,-4.536,-4.5389,-4.5485,-4.5496,-4.5458,-4.5463,-4.5501,-4.5497,-4.5618,-4.5637,-4.5564,-4.5565,-4.5565,0,-4.4441,-4.4497,-4.46,-4.4646,-4.4694,-4.4769,-4.4821,-4.488,-4.4933,-4.5028,-4.5072,-4.516,-4.5233,-4.5368,-4.5433,-4.5518,-4.553,-4.5567,-4.5543,-4.5527,-4.5529,-4.5525,-4.5531,-4.5569,-4.557,-4.557,-4.5571,0,-4.4508,-4.4536,-4.461,-4.4695,-4.4756,-4.4826,-4.4896,-4.4933,-4.5004,-4.5062,-4.515,-4.5207,-4.532,-4.5406,-4.5498,-4.5548,-4.5571,-4.5579,-4.5593,-4.5577,-4.5553,-4.5566,-4.5467,-4.5575,-4.5574,-4.5574,-4.5574,-4.5574,-4.4548,-4.46,-4.4681,-4.4762,-4.4822,-4.4887,-4.4944,-4.5001,-4.5075,-4.5171,-4.5202,-4.5293,-4.5373,-4.5498,-4.5549,-4.5622,-4.562,-4.564,-4.5645,-4.5649,-4.5648,-4.5543,-4.5639,-4.5639,-4.5639,-4.5639,-4.5639,0,-4.4616,-4.4671,-4.4745,-4.4843,-4.4908,-4.4926,-4.5005,-4.5058,-4.5138,-4.521,-4.5282,-4.5384,-4.5469,-4.5543,-4.5632,-4.5676,-4.5689,-4.5697,-4.5693,-4.5705,-4.5645,-4.5624,-4.5685,-4.5685,-4.5685,-4.5685,-4.5685,-4.5685,-4.4659,-4.4749,-4.4787,-4.4908,-4.4962,-4.5051,-4.5095,-4.5157,-4.5215,-4.5327,-4.5398,-4.5446,-4.5519,-4.5614,-4.5694,-4.5714,-4.5744,-4.5749,-4.5771,-4.5714,-4.5709,-4.5703,-4.5683,-4.5756,-4.5756,-4.5825,-4.5825,-4.5826]},{"header":{"parameterUnit":"m.s-1","parameterCategory":1,"la1":30.2991,"la2":30.254,"lo1":-89.0895,"lo2":-89.0444,"dy":0.0017,"dx":0.0017,"nx":28,"ny":28,"refTime":"2025-07-22T21:00:00:Z","depth":0,"parameterNumber":3,"parameterNumberName":"V-component_of_WINDS"},"data":[0,0,0,0,0,0,0,0,0,0,0,0,0,0,0,0,0,0,0,0,0,0,0,0,0,0,0,0,0,0,0,0,0,0,0,0,0,0,0,0,0,0,0,0,0,0,0,0,0,0,0,0,0,0,0,0,0,0,0.5064,0.5065,0,0.516,0.5161,0.5162,0.5256,0.5257,0.5258,0.526,0.5362,0.5363,0.5365,0,0,0,0,0,0,0,0,0,0,0,0,0,0.4966,0.4967,0.5064,0.5065,0.5066,0.516,0.5161,0.5162,0.5256,0.5257,0.5259,0.526,0.5361,0.5363,0.5365,0,0,0,0,0,0,0,0,0,0,0,0,0,0.503,0.4968,0.5064,0.5124,0.5131,0.516,0.5161,0.5163,0.5256,0.5257,0.5259,0.5261,0.536,0.5363,0.5365,0.5343,0,0,0.5372,0.5373,0,0,0,0,0,0,0,0,0.5026,0.5033,0.5114,0.512,0.5127,0.5198,0.5164,0.5223,0.5255,0.5208,0.526,0.5262,0.5306,0.5313,0.5327,0.5348,0.5353,0.5373,0.5374,0.5375,0.5376,0,0,0,0,0,0,0,0.5022,0.503,0.5102,0.5115,0.5123,0.5148,0.5159,0.5176,0.5246,0.5212,0.5219,0.5229,0.531,0.5324,0.533,0.5354,0.5373,0.5375,0.5376,0.5377,0.5363,0.5361,0,0,0,0,0,0,0.5007,0.5025,0.5099,0.5105,0.508,0.5148,0.5161,0.5173,0.5246,0.5259,0.5228,0.5233,0.532,0.5327,0.5334,0.5313,0.5375,0.5377,0.5379,0.5365,0.5362,0.536,0,0,0,0,0,0,0.5005,0.5013,0.5095,0.5067,0.508,0.5148,0.5162,0.5174,0.5189,0.5257,0.5271,0.5229,0.5321,0.5331,0.534,0.5318,0.5378,0.5381,0.5367,0.5364,0.5361,0.527,0,0,0,0,0,0,0.5002,0.5012,0.5003,0.5066,0.5081,0.5098,0.516,0.5175,0.5192,0.5201,0.5262,0.5274,0.5323,0.5336,0.5342,0.5322,0.5382,0.5369,0.5366,0.5362,0.5276,0.5265,0.5256,0,0,0,0,0,0.4998,0.4974,0.5002,0.501,0.5071,0.5096,0.5105,0.516,0.519,0.5183,0.5227,0.5273,0.5319,0.5336,0.5344,0.5324,0.5371,0.5367,0.5363,0.528,0.5267,0.5256,0,0,0,0,0,0,0.4908,0.4984,0.5015,0.5011,0.5046,0.5112,0.5104,0.5145,0.5174,0.518,0.525,0.5263,0.5264,0.5296,0.5313,0.5307,0.5352,0.5349,0.5286,0.5274,0.5264,0.5256,0.5384,0,0,0,0,0,0.4887,0.49,0.4967,0.4957,0.4973,0.5035,0.5048,0.5088,0.5128,0.5144,0.5189,0.5227,0.5251,0.5265,0.529,0.5281,0.5296,0.5272,0.5262,0.5253,0.525,0.5248,0.5237,0.5347,0.5347,0.5347,0,0,0.4845,0.4888,0.4893,0.494,0.4972,0.4985,0.5047,0.5058,0.5069,0.5146,0.5157,0.5191,0.5239,0.5239,0.5241,0.5265,0.5223,0.5248,0.5241,0.5242,0.5242,0.5232,0.5223,0.5344,0.5345,0.5345,0,0,0.4775,0.4809,0.4804,0.4835,0.4882,0.4924,0.4923,0.4983,0.5008,0.502,0.5078,0.5093,0.5132,0.5163,0.5184,0.5126,0.5169,0.5133,0.508,0.5077,0.5068,0.5061,0.504,0.5032,0.513,0.5129,0.5129,0,0.4717,0.4737,0.4797,0.4804,0.4823,0.4893,0.4889,0.4917,0.497,0.4982,0.5009,0.5059,0.5096,0.5104,0.509,0.5105,0.5106,0.5125,0.5065,0.5058,0.5052,0.5033,0.5025,0.5124,0.5125,0.5125,0.5126,0,0.4663,0.4677,0.4667,0.4716,0.4734,0.4736,0.4797,0.4809,0.4848,0.4887,0.4899,0.4946,0.4982,0.4987,0.5026,0.5001,0.5014,0.5052,0.5097,0.5036,0.5019,0.5012,0.5117,0.5119,0.5121,0.5122,0,0,0.4537,0.4619,0.4614,0.4637,0.4695,0.4707,0.4713,0.4746,0.4755,0.4791,0.4797,0.4829,0.4864,0.4888,0.4931,0.4928,0.4879,0.4966,0.4968,0.4947,0.4855,0.4825,0.4815,0.4909,0.4907,0.4907,0.485,0,0.4476,0.4487,0.4541,0.4538,0.4551,0.4618,0.4624,0.466,0.4698,0.4716,0.4759,0.4779,0.4824,0.4839,0.4839,0.4884,0.4861,0.489,0.4916,0.4916,0.49,0.4806,0.4775,0.4719,0.4844,0.4843,0.4842,0,0.4405,0.4434,0.4431,0.4488,0.4496,0.4499,0.4535,0.4551,0.4595,0.4623,0.4649,0.4697,0.4708,0.4751,0.4768,0.4786,0.4801,0.4825,0.4824,0.4828,0.4874,0.4806,0.4703,0.4694,0.4832,0.4833,0.4834,0,0.4311,0.435,0.4353,0.4371,0.4439,0.4439,0.4468,0.4513,0.453,0.4562,0.4574,0.4608,0.4626,0.4652,0.4708,0.4734,0.4718,0.4766,0.4742,0.474,0.4734,0.4733,0.463,0.4745,0.4745,0.4746,0.4746,0,0.4236,0.4231,0.4312,0.4314,0.4311,0.4375,0.4371,0.4406,0.4446,0.4457,0.4519,0.4528,0.4602,0.4621,0.4665,0.4672,0.4681,0.4704,0.4715,0.4697,0.4694,0.4706,0.4711,0.4744,0.4744,0.4744,0.4745,0,0.413,0.4184,0.4192,0.4255,0.4271,0.4266,0.4321,0.4326,0.4368,0.4381,0.4388,0.4454,0.4478,0.4538,0.4579,0.4609,0.4604,0.4626,0.4588,0.4595,0.4567,0.4568,0.4467,0.4457,0.4579,0.4578,0.4577,0,0.4077,0.4075,0.4137,0.4148,0.4174,0.4191,0.4208,0.4272,0.4288,0.4338,0.4337,0.4366,0.4393,0.443,0.4483,0.4515,0.4537,0.45,0.4543,0.4524,0.4536,0.4534,0.4534,0.449,0.4488,0.4487,0.4486,0,0.3977,0.4004,0.4026,0.4057,0.4076,0.4104,0.4136,0.4142,0.4213,0.4228,0.4253,0.4274,0.4316,0.4344,0.4385,0.4416,0.4463,0.4472,0.4468,0.4448,0.4426,0.4437,0.4561,0.4474,0.4475,0.4476,0.4476,0.4477,0.3896,0.3896,0.394,0.3963,0.3993,0.4022,0.4029,0.4072,0.4093,0.413,0.4168,0.4189,0.4235,0.4293,0.4322,0.4341,0.4365,0.4359,0.4357,0.4354,0.4346,0.4424,0.4349,0.4349,0.435,0.435,0.435,0,0.3798,0.3829,0.3849,0.3891,0.3909,0.3951,0.3988,0.4001,0.4018,0.4056,0.4081,0.4111,0.4139,0.4194,0.4228,0.4233,0.4255,0.4239,0.4239,0.4245,0.4323,0.4323,0.422,0.422,0.4221,0.4221,0.4221,0.4221,0.3749,0.3752,0.3784,0.3804,0.3837,0.3857,0.3875,0.3902,0.3932,0.3962,0.3985,0.402,0.4066,0.4103,0.4132,0.4148,0.4157,0.4134,0.4156,0.4228,0.424,0.4251,0.4251,0.4136,0.4136,0.4077,0.4076,0.4076]}]]